Regional Weather Roundup
Issued by NWS Huntsville, AL

Home | Current Version | Previous Version | Text Only | Print | Product List | Glossary On
Versions: 1 2 3 4 5 6 7 8 9 10 11 12 13 14 15 16 17 18 19 20 21 22 23 24 25 26 27 28 29 30 31 32 33 34 35 36 37 38 39 40 41 42 43 44 45 46 47 48 49 50
000
ASUS44 KHUN 311310
RWRHUN

WEATHER ROUNDUP FOR THE TENNESSEE VALLEY
NATIONAL WEATHER SERVICE HUNTSVILLE AL
800 AM CDT MON AUG 31 2015

ALZ001>004-311400-
NORTHWEST ALABAMA

CITY           SKY/WX    TMP DP  RH WIND       PRES   REMARKS
BANKHEAD NF      N/A     67  67 100 CALM        N/A
RUSSELLVILLE     N/A     63 N/A N/A MISG        N/A
SHOALS AIRPORT CLOUDY    68  65  90 E3        30.13R
SHOALS TVA RES   N/A     66 N/A N/A MISG        N/A
$$

ALZ005>007-016-311400-
NORTH CENTRAL ALABAMA

CITY           SKY/WX    TMP DP  RH WIND       PRES   REMARKS
DECATUR AP       N/A    N/A N/A N/A MISG      30.12S
HUNTSVILLE AP  PTSUNNY   72  66  81 E5        30.12R
HUN NWS/UAH      N/A     71  64  79 NE3         N/A
MERIDIANVILLE  CLOUDY    64  61  88 CALM      30.14R
REDSTONE ARSN  MOSUNNY   72  68  88 NE3       30.12R
VINEMONT AP    CLOUDY    68  64  88 CALM      30.15R
$$

ALZ008>010-311400-
NORTHEAST ALABAMA

CITY           SKY/WX    TMP DP  RH WIND       PRES   REMARKS
ALBERTVILLE    CLOUDY    68  68 100 CALM      30.13R
FORT PAYNE     CLOUDY    70  63  78 E3        30.13R
SCOTTSBORO AP  CLOUDY    68  66  94 NE3       30.14R
SCOTTSBORO HCN   N/A     68 N/A N/A MISG        N/A
VALLEY HEAD      N/A     70 N/A N/A MISG        N/A
$$

TNZ076-096-097-311400-
SOUTHEASTERN MIDDLE TENNESSEE

CITY           SKY/WX    TMP DP  RH WIND       PRES   REMARKS
TULLAHOMA      SUNNY     68  64  88 CALM      30.16R
WINCHESTER     MOSUNNY   68  66  94 CALM      30.15R
$$

...SURROUNDING SITES...

CITY           SKY/WX    TMP DP  RH WIND       PRES   REMARKS
ATLANTA        CLOUDY    69  64  84 E8        30.12S
ANNISTON       CLOUDY    71  68  90 E5        30.12R
BIRMINGHAM     CLOUDY    70  68  93 E6        30.13R FOG
CHATTANOOGA    PTSUNNY   72  66  81 NE6       30.14S
DALTON         CLOUDY    68  68 100 CALM      30.15R
GADSDEN        CLOUDY    70  63  78 E7        30.11R
GOLDEN TRNGL   MOSUNNY   68  63  83 NE5       30.09R
HALEYVILLE     CLOUDY    66  66 100 CALM      30.15R
JACKSON TN     MOSUNNY   68  66  93 CALM      30.12R FOG
MEMPHIS        MOSUNNY   73  67  81 SE6       30.09R
NASHVILLE      MOSUNNY   71  64  78 NE3       30.15R
OXFORD MS      FAIR      68  64  88 SE5       30.11R
ROME           CLOUDY    70  65  84 NE3       30.13R
SAVANNAH       SUNNY     64  32  29 CALM      30.12R
TUPELO         SUNNY     70  67  90 CALM      30.10R
TUSCALOOSA     CLOUDY    71  69  93 NE3       30.10R FOG
$$

...GULF COAST WEATHER...

CITY           SKY/WX    TMP DP  RH WIND       PRES   REMARKS
GULFPORT       MOSUNNY   76  70  82 CALM      30.05R
PASCAGOULA     SUNNY     74  71  91 CALM      30.06R
MOBILE         MOSUNNY   75  71  87 NW3       30.07R
PENSACOLA      MOSUNNY   77  72  84 N3        30.04R
DESTIN         SUNNY     80  71  74 NE3       30.05R
PANAMA CITY    MOSUNNY   76  72  89 E3        30.04R
APPALACHICOLA  SUNNY     76  76 100 N5        30.03R
$$




USA.gov is the U.S. government's official web portal to all federal, state and local government web resources and services.